Agen, France

12:35 AM CEST on April 30, 2017 (GMT +0200)
La Garenne

Weather History for LFBA - February, 2013

Change the Weather History Date:

Thursday, February 28, 2013

  Actual Average Record
Temperature  
Mean Temperature 39 °F -  
Max Temperature 55 °F 57 °F 71 °F (1997)
Min Temperature 23 °F 39 °F 23 °F (2005)
Degree Days  
Heating Degree Days 26    
Moisture  
Dew Point 30 °F    
Average Humidity 78    
Maximum Humidity 100    
Minimum Humidity 44    
Precipitation  
Precipitation 0.00 in - - ()
Sea Level Pressure  
Sea Level Pressure 30.12 in    
Wind  
Wind Speed 2 mph ()    
Max Wind Speed 13 mph    
Max Gust Speed -    
Visibility 3.8 miles    
Events Fog    
Averages and records for this station are not official NWS values.
T = Trace of Precipitation, MM = Missing Value Source: Averaged Metar Reports

Daily Weather History Graph

Daily Weather History Graph

Search for Another Location

Airport or City:

Trip Planner

Search our weather history database for the weather conditions in past years. The results will help you decide how hot, cold, wet, or windy it might be!

Date:

Astronomy

Feb. 28, 2013 Rise Set
Actual Time 7:36 AM CET 6:44 PM CET
Civil Twilight 7:07 AM CET 7:13 PM CET
Nautical Twilight 6:33 AM CET 7:47 PM CET
Astronomical Twilight 6:00 AM CET 8:20 PM CET
Moon 10:04 PM CET (2/28) 8:29 AM CET (2/28)
Length of Visible Light 12h 06m
Length of Day
11h 08m
Waning Gibbous, 92% of the Moon is Illuminated
Feb 28
Waning Gibbous
Mar 4
Last Quarter
Mar 11
New
Mar 19
First Quarter
Mar 27
Full

Hourly Weather History & Observations

Time (CET) Temp. Windchill Dew Point Humidity Pressure Visibility Wind Dir Wind Speed Gust Speed Precip Events Conditions
12:00 AM 28.4 °F - 26.6 °F 93% 30.18 in 0.8 mi Calm Calm - N/A   Mist
12:30 AM 28.4 °F - 26.6 °F 93% 30.18 in 1.3 mi Calm Calm - N/A   Mist
1:00 AM 28.4 °F 24.6 °F 26.6 °F 93% 30.18 in 1.5 mi East 3.5 mph - N/A   Mist
1:30 AM 28.4 °F - 28.4 °F 100% 30.18 in 0.1 mi East 2.3 mph - N/A Fog Light Freezing Fog
2:00 AM 30.2 °F - 28.4 °F 93% 30.18 in 0.0 mi Variable 1.2 mph - N/A Fog Light Freezing Fog
2:30 AM 28.4 °F - 26.6 °F 93% 30.15 in 0.0 mi Calm Calm - N/A Fog Light Freezing Fog
3:00 AM 26.6 °F - 24.8 °F 93% 30.15 in 0.0 mi Calm Calm - N/A Fog Light Freezing Fog
3:30 AM 24.8 °F - 23.0 °F 93% 30.15 in 0.2 mi East 2.3 mph - N/A Fog Light Freezing Fog
4:00 AM 26.6 °F - 24.8 °F 93% 30.15 in 0.1 mi ENE 2.3 mph - N/A Fog Light Freezing Fog
4:30 AM 26.6 °F - 24.8 °F 93% 30.15 in 0.1 mi Calm Calm - N/A Fog Light Freezing Fog
5:00 AM 24.8 °F - 24.8 °F 100% 30.15 in 0.1 mi Calm Calm - N/A Fog Light Freezing Fog
5:30 AM 24.8 °F - 23.0 °F 93% 30.15 in 0.1 mi Calm Calm - N/A Fog Light Freezing Fog
6:00 AM 23.0 °F - 21.2 °F 93% 30.15 in 0.1 mi Calm Calm - N/A Fog Light Freezing Fog
6:30 AM 24.8 °F - 23.0 °F 93% 30.15 in 1.2 mi Calm Calm - N/A   Mostly Cloudy
7:00 AM 23.0 °F - 21.2 °F 93% 30.15 in 1.6 mi Calm Calm - N/A   Partly Cloudy
7:30 AM 24.8 °F - 23.0 °F 93% 30.15 in 1.1 mi Calm Calm - N/A   Mist
8:00 AM 24.8 °F - 23.0 °F 93% 30.15 in 1.1 mi WSW 1.2 mph - N/A   Mostly Cloudy
8:30 AM 24.8 °F - 24.8 °F 100% 30.15 in 1.7 mi WNW 2.3 mph - N/A   Mist
9:00 AM 26.6 °F - 26.6 °F 100% 30.15 in - WNW 2.3 mph - N/A Fog Light Freezing Fog
9:30 AM 28.4 °F - 28.4 °F 100% 30.15 in 1.0 mi Calm Calm - N/A   Mist
10:00 AM 33.8 °F - 33.8 °F 100% 30.15 in - Calm Calm - N/A   Mist
10:30 AM 37.4 °F - 33.8 °F 87% 30.15 in - Variable 1.2 mph - N/A   Mist
11:00 AM 41.0 °F - 33.8 °F 76% 30.15 in 3.7 mi Variable 2.3 mph - N/A   Unknown
11:30 AM 42.8 °F 41.1 °F 33.8 °F 70% 30.15 in 5.0 mi Variable 3.5 mph - N/A   Unknown
12:00 PM 46.4 °F - 35.6 °F 66% 30.15 in 6.2 mi Variable 2.3 mph - N/A   Unknown
12:30 PM 48.2 °F - 37.4 °F 66% 30.12 in 6.2 mi NE 3.5 mph - N/A   Unknown
1:00 PM 51.8 °F - 39.2 °F 62% 30.12 in 6.2 mi East 3.5 mph - N/A   Unknown
1:30 PM 53.6 °F - 37.4 °F 54% 30.12 in 6.2 mi ESE 8.1 mph - N/A   Unknown
2:00 PM 53.6 °F - 35.6 °F 51% 30.09 in 6.2 mi ESE 12.7 mph - N/A   Unknown
2:30 PM 53.6 °F - 35.6 °F 51% 30.09 in 6.2 mi ESE 12.7 mph - N/A   Unknown
3:00 PM 53.6 °F - 35.6 °F 51% 30.09 in 6.2 mi ESE 10.4 mph - N/A   Partly Cloudy
3:30 PM 53.6 °F - 35.6 °F 51% 30.06 in 6.2 mi ESE 10.4 mph - N/A   Unknown
4:00 PM 55.4 °F - 33.8 °F 44% 30.06 in 6.2 mi East 11.5 mph - N/A   Unknown
4:30 PM 55.4 °F - 35.6 °F 47% 30.06 in 6.2 mi ESE 8.1 mph - N/A   Unknown
5:00 PM 55.4 °F - 33.8 °F 44% 30.06 in 6.2 mi East 8.1 mph - N/A   Unknown
5:30 PM 53.6 °F - 32.0 °F 44% 30.06 in 6.2 mi ENE 6.9 mph - N/A   Unknown
6:00 PM 51.8 °F - 33.8 °F 50% 30.06 in 6.2 mi East 5.8 mph - N/A   Unknown
6:30 PM 48.2 °F - 32.0 °F 54% 30.06 in 6.2 mi ESE 4.6 mph - N/A   Unknown
7:00 PM 48.2 °F - 33.8 °F 58% 30.06 in 6.2 mi East 3.5 mph - N/A   Unknown
7:30 PM 44.6 °F 43.1 °F 33.8 °F 66% 30.06 in 6.2 mi ESE 3.5 mph - N/A   Unknown
8:00 PM 42.8 °F - 32.0 °F 66% 30.06 in 6.2 mi Calm Calm - N/A   Unknown
8:30 PM 39.2 °F - 32.0 °F 75% 30.06 in 6.2 mi Calm Calm - N/A   Unknown
9:00 PM 37.4 °F - 32.0 °F 81% 30.06 in 6.2 mi East 2.3 mph - N/A   Unknown
9:30 PM 35.6 °F - 30.2 °F 81% 30.06 in 6.2 mi SE 2.3 mph - N/A   Unknown
10:00 PM 35.6 °F - 32.0 °F 87% 30.06 in 6.2 mi East 2.3 mph - N/A   Unknown
10:30 PM 35.6 °F - 32.0 °F 87% 30.06 in 6.2 mi Calm Calm - N/A   Unknown
11:00 PM 33.8 °F - 30.2 °F 87% 30.06 in 6.2 mi Calm Calm - N/A   Unknown
11:30 PM 33.8 °F - 30.2 °F 87% 30.06 in 6.2 mi Calm Calm - N/A   Unknown